Location: Unspecified
(0.0000°N, 0.0000°E)
Time: 17:52:08
(UTC+00:00)

STARLINK 1038 - Pass Details

Date: 15 January 2020
Orbit: 548 x 551 km, 53.0° (Epoch: 17 January)

Event Time Altitude Azimuth Distance (km) Brightness Sun altitude
Rises 20:05:52 0° 299° (WNW) 2,704 7.6 -27.0°
Reaches altitude 10° 20:08:37 10° 280° (W) 1,814 6.9 -27.6°
Maximum altitude 20:11:31 18° 235° (SW) 1,363 6.4 -28.3°
Drops below altitude 10° 20:14:25 10° 191° (S) 1,820 6.6 -29.0°
Sets 20:17:12 0° 172° (S) 2,717 7.4 -29.6°
